NOAA 16 DEB, 41208

Orbit data source: Space-Track

NOAA 16 DEB, 41208 is space debris in SSO originally from a launch on Thu, 21 Sep 2000 UTC launched from the Air Force Western Test Range (AFWTR). Debris objects in space refer to the collection of defunct objects orbiting the Earth. Examples of debris include non-operational satellites, rocket bodies, and fragments generated from explosions, collisions, or faulty payload assembly.

Loading next visibility...
Identifier
41208, 2000-055DM
Orbit
SSO
Country
Flag of USUS
Related business
Manufacturer
Unknown
Mission
Spacecraft
Bus & Motor
Unknown
Mass
Unknown
Launch date (UTC)
2000-09-21 (26 years ago)
Launch vehicle
Unknown
Launch site
Air Force Western Test Range (AFWTR)
Object type
Payload
Rocket body
Debris
Shape & HBR
Unknown shape, 0.1 m
Radar Cross Section
Medium (>0.1 m² and <1 m²)

Expand to show TLE details & history
Last TLE update: 7 hours ago

TLE from 7 hours ago
0 NOAA 16 DEB
1 41208U 00055DM  26165.28595096  .00002444  00000-0  11953-2 0  9994
2 41208  98.6595 177.5679 0028287 254.6965 105.1084 14.18631144539149
Epoch: 2026-06-14T06:51Z
TLE epoch observation values (Epoch: 2026-06-14T06:51:46.162Z)
Latitude
-0.00004°
Longitude
172.03669°
Altitude
838.269 km
Speed
7.431 km/s
True Right ascension
11h 50m 16s
True Declination
0° 00' 00"
Sunlit
Object was in daylight at epoch
Visualization orbit readout
Latitude
Unknown
Longitude
Unknown
Altitude
Unknown
Speed
Unknown
Apparent Right ascension
Unknown
Apparent Declination
Unknown
Sunlit
N/A
Visualization observer readout
Local Sidereal Time
00:33:51
Azimuth
Unknown
Elevation
Unknown
Doppler factor
Unknown
Orbital elements
Apogee altitude
847.525 km
Perigee altitude
806.762 km
Semi-major axis
7,205.281 km
Eccentricity
0.00283
Inclination
98.6595°
RAAN
177.5679°
Arg. of periapsis
254.6965°
True anomaly
105.42105°
Mean anomaly
105.1084°
Eccentric anomaly
105.26475°
Mean motion
3.54868 °/min
Orbital period
101.45 mins
BSTAR
0.0011953
Loading maneuver chart data...
Computing Atmospheric mass density...
Loading historical data...
Loading historical data...
Loading historical data...
Loading historical data...
Loading historical data...
Loading historical data...
Loading historical data...

Documentation

Showing up to 5 results
|